Targu Mures, Romania

8:13 AM EEST on May 23, 2017 (GMT +0300)
Vidrasau

Weather History for LRTM - May, 2017

Change the Weather History Date:

Friday, May 19, 2017

  Actual Average Record
Temperature  
Mean Temperature 66 °F -  
Max Temperature 77 °F 73 °F 82 °F (2000)
Min Temperature 56 °F 51 °F 37 °F (1999)
Cooling Degree Days 2    
Growing Degree Days 16 (Base 50)    
Moisture  
Dew Point 51 °F    
Average Humidity 60    
Maximum Humidity 94    
Minimum Humidity 22    
Precipitation  
Precipitation 0.02 in - - ()
Sea Level Pressure  
Sea Level Pressure 30.00 in    
Wind  
Wind Speed 3 mph ()    
Max Wind Speed 7 mph    
Max Gust Speed -    
Visibility 7.5 miles    
Events      
Averages and records for this station are not official NWS values.
T = Trace of Precipitation, MM = Missing Value Source: Averaged Metar Reports

Daily Weather History Graph

Daily Weather History Graph

Search for Another Location

Airport or City:

Trip Planner

Search our weather history database for the weather conditions in past years. The results will help you decide how hot, cold, wet, or windy it might be!

Date:

Astronomy

May. 19, 2017 Rise Set
Actual Time 5:43 AM EEST 8:53 PM EEST
Civil Twilight 5:07 AM EEST 9:30 PM EEST
Nautical Twilight 4:20 AM EEST 10:17 PM EEST
Astronomical Twilight 3:22 AM EEST 11:15 PM EEST
Moon 2:27 AM EEST (5/19) 1:07 PM EEST (5/19)
Length of Visible Light 16h 22m
Length of Day
15h 10m
Waning Gibbous, 46% of the Moon is Illuminated
May 19
Waning Gibbous
May 25
New
Jun 1
First Quarter
Jun 9
Full
Jun 17
Last Quarter

Hourly Weather History & Observations

Time (EEST) Temp. Dew Point Humidity Pressure Visibility Wind Dir Wind Speed Gust Speed Precip Events Conditions
12:00 AM 63 °F 52 °F 59% 30.06 in 6 mi NE 4.5 mph - -   Partly Cloudy
12:00 AM 60.8 °F 53.6 °F 77% 30.04 in 6.2 mi WSW 3.5 mph - N/A   Overcast
12:30 AM 60.8 °F 53.6 °F 77% 30.04 in 6.2 mi Calm Calm - N/A   Overcast
1:00 AM 62 °F 54 °F 66% 30.06 in 6 mi ESE 2.2 mph - -   Overcast
1:00 AM 60.8 °F 53.6 °F 77% 30.04 in 6.2 mi West 3.5 mph - N/A   Overcast
1:30 AM 60.8 °F 53.6 °F 77% 30.04 in 6.2 mi NNW 3.5 mph - N/A   Mostly Cloudy
2:00 AM 60 °F 53 °F 70% 30.05 in 6 mi NE 2.2 mph - -   Mostly Cloudy
2:00 AM 59.0 °F 51.8 °F 77% 30.04 in 6.2 mi WSW 4.6 mph - N/A   Scattered Clouds
2:30 AM 59.0 °F 51.8 °F 77% 30.01 in 6.2 mi WSW 2.3 mph - N/A   Overcast
3:00 AM 57.2 °F 51.8 °F 82% 30.01 in 6.2 mi WSW 3.5 mph - N/A   Overcast
3:30 AM 57.2 °F 51.8 °F 82% 30.01 in 6.2 mi ENE 1.2 mph - N/A   Overcast
4:00 AM 59 °F 54 °F 77% 30.04 in 6 mi East 2.2 mph - -   Mostly Cloudy
4:00 AM 57.2 °F 51.8 °F 82% 30.01 in 6.2 mi Calm Calm - N/A   Overcast
4:30 AM 57.2 °F 51.8 °F 82% 30.01 in 6.2 mi Calm Calm - N/A   Overcast
5:00 AM 58 °F 53 °F 80% 30.05 in 6 mi ENE 2.2 mph - -   Overcast
5:00 AM 57.2 °F 51.8 °F 82% 30.01 in 6.2 mi Variable 1.2 mph - N/A   Overcast
5:30 AM 57.2 °F 53.6 °F 88% 30.01 in 6.2 mi Calm Calm - N/A   Overcast
6:00 AM 57 °F 53 °F 83% 30.05 in 6 mi NE 2.2 mph - -   Overcast
6:00 AM 57.2 °F 53.6 °F 88% 30.04 in 6.2 mi Calm Calm - N/A   Overcast
6:30 AM 55.4 °F 53.6 °F 94% 30.04 in 6.2 mi ENE 3.5 mph - N/A   Overcast
7:00 AM 56 °F 53 °F 88% 30.05 in 12 mi NE 2.2 mph - -   Mostly Cloudy
7:00 AM 57.2 °F 53.6 °F 88% 30.04 in 6.2 mi East 2.3 mph - N/A   Overcast
7:30 AM 59.0 °F 55.4 °F 88% 30.04 in 6.2 mi ENE 3.5 mph - N/A   Overcast
8:00 AM 59 °F 55 °F 81% 30.05 in 12 mi NNE 2.2 mph - -   Mostly Cloudy
8:00 AM 59.0 °F 53.6 °F 82% 30.04 in - NE 2.3 mph - N/A   Clear
8:30 AM 60.8 °F 53.6 °F 77% 30.04 in - ENE 5.8 mph - N/A   Clear
9:00 AM 62 °F 51 °F 58% 30.05 in 12 mi East 2.2 mph - -   Mostly Cloudy
9:00 AM 62.6 °F 53.6 °F 72% 30.04 in - East 6.9 mph - N/A   Clear
9:30 AM 64.4 °F 51.8 °F 64% 30.04 in - SE 4.6 mph - N/A   Clear
10:00 AM 65 °F 52 °F 53% 30.05 in 12 mi SE 4.5 mph - -   Scattered Clouds
10:00 AM 66.2 °F 53.6 °F 64% 30.04 in - SE 4.6 mph - N/A   Clear
10:30 AM 68.0 °F 53.6 °F 60% 30.04 in - East 4.6 mph - N/A   Clear
11:00 AM 67 °F 52 °F 48% 30.04 in 12 mi ESE 6.7 mph - -   Scattered Clouds
11:00 AM 68.0 °F 51.8 °F 56% 30.04 in 6.2 mi ESE 4.6 mph - N/A   Partly Cloudy
11:30 AM 69.8 °F 53.6 °F 56% 30.04 in 6.2 mi East 6.9 mph - N/A   Partly Cloudy
12:00 PM 69 °F 50 °F 39% 30.03 in 12 mi South 4.5 mph - -   Scattered Clouds
12:00 PM 69.8 °F 51.8 °F 53% 30.01 in 6.2 mi East 4.6 mph - N/A   Scattered Clouds
12:30 PM 71.6 °F 53.6 °F 53% 30.01 in 6.2 mi Variable 5.8 mph - N/A   Scattered Clouds
1:00 PM 72 °F 48 °F 32% 30.01 in 12 mi South 4.5 mph - -   Scattered Clouds
1:00 PM 71.6 °F 51.8 °F 50% 30.01 in 6.2 mi Variable 5.8 mph - N/A   Scattered Clouds
1:30 PM 71.6 °F 51.8 °F 50% 30.01 in 6.2 mi SSW 6.9 mph - N/A   Scattered Clouds
2:00 PM 74 °F 47 °F 27% 30.00 in 12 mi South 2.2 mph - -   Scattered Clouds
2:00 PM 71.6 °F 50.0 °F 46% 30.01 in 6.2 mi Variable 3.5 mph - N/A   Scattered Clouds
2:30 PM 71.6 °F 53.6 °F 53% 29.98 in 6.2 mi East 4.6 mph - N/A   Mostly Cloudy
3:00 PM 74 °F 45 °F 25% 29.99 in 12 mi East 4.5 mph - -   Mostly Cloudy
3:00 PM 73.4 °F 53.6 °F 50% 29.98 in 6.2 mi ESE 4.6 mph - N/A   Mostly Cloudy
3:30 PM 75.2 °F 51.8 °F 44% 29.98 in 6.2 mi Variable 3.5 mph - N/A   Scattered Clouds
4:00 PM 76 °F 47 °F 24% 29.96 in 12 mi WSW 2.2 mph - -   Partly Cloudy
4:00 PM 75.2 °F 50.0 °F 41% 29.98 in 6.2 mi ESE 6.9 mph - N/A   Scattered Clouds
4:30 PM 75.2 °F 48.2 °F 38% 29.95 in 6.2 mi Variable 3.5 mph - N/A   Scattered Clouds
5:00 PM 75.2 °F 48.2 °F 38% 29.95 in 6.2 mi Variable 3.5 mph - N/A   Scattered Clouds
5:30 PM 75.2 °F 48.2 °F 38% 29.95 in 6.2 mi West 3.5 mph - N/A   Scattered Clouds
6:00 PM 76 °F 45 °F 22% 29.94 in 12 mi SSE 2.2 mph - -   Scattered Clouds
6:00 PM 77.0 °F 50.0 °F 39% 29.95 in 6.2 mi Variable 2.3 mph - N/A   Scattered Clouds
6:30 PM 77.0 °F 46.4 °F 34% 29.95 in 6.2 mi Variable 1.2 mph - N/A   Partly Cloudy
7:00 PM 75 °F 44 °F 22% 29.93 in 12 mi SSE 4.5 mph - -   Scattered Clouds
7:00 PM 73.4 °F 48.2 °F 41% 29.95 in 6.2 mi ESE 4.6 mph - N/A   Partly Cloudy
7:30 PM 71.6 °F 50.0 °F 46% 29.95 in 6.2 mi East 3.5 mph - N/A   Partly Cloudy
8:00 PM 75 °F 46 °F 24% 29.93 in 12 mi South 2.2 mph - -   Scattered Clouds
8:00 PM 71.6 °F 50.0 °F 46% 29.92 in 6.2 mi Variable 2.3 mph - N/A   Unknown
8:30 PM 69.8 °F 51.8 °F 53% 29.95 in 6.2 mi SSE 2.3 mph - N/A   Unknown
9:00 PM 72 °F 46 °F 28% 29.93 in 12 mi SSE 2.2 mph - -   Scattered Clouds
9:00 PM 64.4 °F 53.6 °F 68% 29.95 in 6.2 mi SSE 2.3 mph - N/A   Unknown
9:30 PM 64.4 °F 51.8 °F 64% 29.95 in 6.2 mi NNW 3.5 mph - N/A   Unknown
10:00 PM 60.8 °F 51.8 °F 72% 29.95 in 6.2 mi NNW 1.2 mph - N/A   Unknown
10:30 PM 59.0 °F 51.8 °F 77% 29.95 in 6.2 mi NNW 3.5 mph - N/A   Unknown
11:00 PM 57.2 °F 50.0 °F 77% 29.95 in 4.3 mi Variable 1.2 mph - N/A   Unknown
11:30 PM 57.2 °F 50.0 °F 77% 29.95 in 5.6 mi NNE 2.3 mph - N/A   Unknown